RH
45 57 54 58 73 68 52 37 46 68 72 66 51 42 40 38 37 38 38 27 16 12 10 13 27 33 31 31 32 32 38 49 59 78 77 65 70 83 81 79 102 96 70 55 55 75 88 90 95 99 97 88 86 76 52 42 31 47 77 70 82 99 100 101 99 99 103 106 95 88 91 95 97 102 104 99 96 96 88 66 53 47 48 51 54 58 58 63 58 65 63 50 80 104 102 71 39
37 54 56 59 76 73 54 38 47 68 75 70 54 44 42 39 37 38 40 33 20 13 12 10 20 33 35 34 34 34 35 42 50 68 73 65 66 73 76 74 85 92 79 61 55 70 79 74 77 86 85 77 73 65 43 32 41 69 91 87 93 99 100 100 99 100 104 94 76 72 74 86 95 100 105 100 96 94 86 65 54 50 50 51 49 52 59 74 69 68 64 54 87 103 101 77 42
31 51 59 60 71 71 54 42 47 59 72 72 57 46 42 41 37 39 42 38 26 14 13 10 14 28 38 39 37 38 35 37 38 45 48 48 57 62 70 70 71 78 76 68 61 63 68 62 59 63 66 66 62 59 45 31 50 88 98 90 94 98 103 100 99 104 103 81 61 66 73 89 99 100 103 101 97 95 88 65 55 54 52 53 53 58 65 82 82 73 62 62 96 102 104 94 53
30 44 57 59 65 64 50 48 50 52 69 74 61 48 43 43 38 38 43 42 32 18 14 12 12 19 33 43 44 43 39 39 37 36 36 32 33 38 52 64 69 73 72 73 70 61 57 54 47 47 56 60 56 51 50 40 39 78 103 93 87 93 102 99 100 105 101 85 67 75 88 97 102 102 103 102 98 91 84 65 54 51 53 62 68 78 86 94 91 83 63 56 90 102 102 93 63
27 33 46 58 62 56 47 52 55 52 67 77 64 50 45 43 40 39 42 44 37 23 15 13 12 14 24 38 47 50 46 42 41 38 36 33 28 23 28 44 63 74 76 82 88 77 60 56 51 45 49 56 58 50 56 68 56 73 102 100 96 96 99 102 104 101 95 89 78 84 97 101 101 100 98 93 85 75 68 59 51 54 63 74 83 91 95 93 91 89 67 63 87 87 82 82 80
23 26 37 60 63 51 51 55 54 51 61 76 68 52 47 43 41 39 42 46 42 29 18 14 13 13 18 30 42 52 52 46 44 41 37 35 31 25 20 24 40 58 71 83 92 91 79 69 64 58 53 49 51 46 55 88 94 92 101 100 100 98 103 106 99 95 94 93 83 82 90 91 92 89 81 72 66 63 59 55 52 60 72 77 81 78 71 69 78 82 68 77 84 70 76 91 100
20 23 34 61 67 58 63 61 49 45 52 72 71 54 49 44 41 40 42 46 45 34 20 16 13 13 16 24 34 43 50 50 48 48 46 45 42 35 28 24 24 32 45 59 67 74 84 87 80 72 65 58 56 53 61 91 105 101 101 99 100 102 102 97 94 97 96 96 82 75 85 79 76 73 64 59 57 61 57 51 51 60 75 76 71 68 62 61 71 74 68 80 83 79 88 98 104
16 20 30 52 70 70 77 72 50 44 51 71 73 56 51 45 42 42 43 46 47 39 23 17 14 13 14 20 29 34 41 47 52 57 59 59 60 56 51 45 38 32 32 37 41 43 62 87 95 90 82 80 81 82 87 99 102 99 102 102 103 97 84 82 95 96 78 80 76 65 76 68 60 59 51 55 56 60 53 47 59 69 79 80 75 74 72 69 71 75 73 84 97 98 92 94 102
14 18 23 40 69 76 85 85 57 47 54 71 76 59 52 46 43 43 42 46 48 43 27 18 16 14 12 14 22 30 36 40 47 56 64 69 72 73 74 75 70 62 52 43 41 37 39 58 78 92 98 101 102 102 102 99 98 97 95 89 85 74 65 74 78 68 48 56 70 62 71 63 49 48 50 62 62 58 49 55 77 77 75 82 84 79 72 67 74 84 75 81 101 96 83 90 99
13 16 20 30 62 76 88 93 66 53 55 70 80 64 53 47 44 43 42 44 49 47 31 19 17 15 13 11 14 22 33 39 44 50 61 72 78 79 79 87 95 94 88 76 67 56 45 42 44 56 71 82 82 80 77 70 67 64 63 58 52 53 54 55 46 41 37 48 68 65 74 73 53 53 69 77 63 56 50 58 82 77 73 83 85 79 73 66 75 90 79 81 92 84 83 95 98
16 15 19 23 49 75 91 95 70 57 55 66 83 69 54 49 45 43 42 43 49 49 35 21 17 16 14 12 12 15 24 35 42 50 60 74 82 81 79 84 96 105 105 100 93 86 79 70 57 49 45 48 48 45 43 38 37 33 40 49 44 47 47 42 38 39 45 57 71 69 82 92 73 61 83 90 61 53 52 56 78 80 79 83 78 76 78 72 76 87 86 87 78 74 89 99 95
18 16 17 20 38 67 92 94 71 63 61 64 82 75 55 50 47 44 43 43 48 50 38 22 17 16 15 13 12 13 16 23 30 40 54 68 73 70 71 76 87 95 94 90 85 84 86 84 80 75 66 62 56 49 44 38 44 42 46 63 61 56 52 53 55 51 54 62 67 70 90 105 89 69 83 103 79 57 58 69 92 97 91 87 77 74 74 72 81 89 86 77 65 75 92 93 86
16 16 15 21 30 54 87 94 76 74 72 65 81 80 58 51 48 46 44 43 47 51 42 25 18 16 15 14 13 13 13 15 18 24 33 42 45 42 47 58 70 76 78 77 70 63 58 57 58 64 67 62 55 50 45 41 53 63 66 74 79 80 73 75 79 73 68 68 69 67 88 106 99 88 84 101 100 78 74 89 106 105 100 93 79 73 69 73 88 91 76 62 72 89 84 76 73
14 14 14 20 24 38 72 92 82 82 82 69 82 83 59 51 47 46 44 42 46 50 46 29 19 17 16 15 13 13 13 13 13 15 18 20 21 21 25 31 40 45 50 57 60 52 39 35 32 38 44 43 55 61 53 56 68 80 88 87 91 99 94 95 93 91 90 89 89 70 81 103 99 97 91 98 105 98 97 104 107 100 98 87 73 72 69 76 87 82 62 54 81 88 62 58 69
14 14 14 19 23 27 52 86 83 81 84 68 81 85 60 51 46 45 44 41 44 49 51 36 21 18 17 16 14 14 13 13 12 12 13 13 14 15 17 17 19 20 21 28 38 39 31 27 23 25 40 63 87 84 72 85 96 95 98 97 99 102 98 104 98 100 100 91 99 91 93 107 100 101 101 99 93 92 97 100 106 101 94 75 68 75 68 71 78 74 58 55 83 76 53 66 85
13 13 14 16 24 26 38 73 79 84 88 65 78 89 66 54 46 44 43 41 42 46 53 43 25 19 19 18 16 15 14 14 13 13 13 14 16 16 17 17 17 16 16 18 23 26 24 23 21 22 45 84 96 81 85 101 104 99 99 100 103 100 89 94 100 105 88 67 89 105 100 85 81 100 100 84 65 67 81 83 93 92 83 69 69 73 65 71 71 66 55 57 80 73 70 91 98
11 13 19 17 21 26 30 54 75 95 94 67 77 95 80 61 48 47 44 41 43 43 51 48 29 19 21 20 19 18 16 16 14 15 15 15 16 16 16 17 17 16 17 19 20 22 21 22 23 28 47 73 79 80 96 102 101 99 99 100 100 97 80 75 92 106 93 79 91 95 95 76 67 97 101 85 71 73 88 88 86 80 76 70 64 57 60 76 68 57 50 60 84 80 91 105 101
11 13 19 16 16 24 27 36 63 88 85 68 71 89 92 71 51 51 47 42 45 42 45 50 35 20 22 22 21 21 19 19 17 16 16 16 17 17 16 16 17 17 17 18 21 21 21 22 20 30 46 53 64 82 91 90 97 101 100 99 94 88 70 66 76 87 101 103 83 57 77 96 90 101 101 97 97 98 104 101 92 82 78 70 55 48 61 76 67 57 53 74 100 91 99 106 101
10 11 13 13 12 21 27 25 46 72 81 73 56 66 91 84 61 53 50 42 45 45 39 47 40 22 21 23 23 23 22 21 20 19 18 18 19 18 16 15 17 17 19 19 21 22 21 23 19 22 33 34 41 58 69 73 84 96 102 99 98 94 80 86 79 68 94 106 81 53 67 100 104 100 100 100 102 104 103 96 88 81 83 73 53 53 70 77 67 60 62 92 110 95 101 106 88
10 11 10 11 9 15 25 21 30 54 80 82 48 49 83 96 80 58 53 46 43 47 38 41 41 24 22 24 24 25 25 24 23 22 20 20 19 19 16 14 16 16 19 21 23 25 22 22 21 19 21 22 22 27 38 50 64 83 100 100 99 100 93 102 94 73 90 98 91 90 90 99 103 99 101 101 100 101 90 79 77 78 86 76 55 61 77 76 62 54 68 101 108 91 93 85 58
9 11 9 10 9 11 18 17 21 32 66 82 47 44 73 95 97 69 56 51 43 47 39 38 40 28 23 24 26 26 26 27 26 25 23 21 20 18 16 13 15 16 17 20 23 25 25 23 22 21 19 18 18 18 20 27 39 53 77 96 100 104 100 102 102 94 98 94 88 99 100 98 101 101 100 100 102 103 89 79 81 86 88 67 55 71 80 69 51 53 83 107 96 74 67 54 40
8 10 9 9 10 10 12 14 20 18 49 81 52 43 66 85 103 85 64 56 47 47 42 37 39 31 24 24 26 27 28 29 28 28 26 23 20 17 16 14 15 16 16 18 22 24 25 25 22 21 20 19 18 18 22 27 33 36 45 59 69 84 94 98 101 100 100 97 92 95 101 101 100 100 100 101 100 101 100 93 92 100 85 58 67 89 78 56 52 75 102 100 73 52 46 40 40
7 9 8 9 10 10 11 12 19 14 35 78 64 48 60 75 100 96 72 62 53 48 44 38 38 33 26 25 27 28 29 29 29 29 27 24 19 17 16 15 15 15 16 16 20 23 24 25 22 20 19 19 17 14 18 26 32 37 35 37 55 75 88 97 99 96 92 90 92 93 95 99 101 101 100 103 103 100 100 94 100 102 75 65 94 95 60 46 71 101 98 71 47 39 40 40 45
7 9 7 9 10 9 10 9 16 15 25 68 76 57 57 68 92 98 76 65 61 52 46 40 37 34 28 25 27 29 29 28 29 29 29 25 19 18 17 16 16 15 16 16 18 22 25 25 22 21 21 20 20 15 14 19 25 32 34 47 81 99 97 100 101 102 97 84 86 93 93 90 94 101 100 104 106 103 97 95 105 96 71 84 97 67 42 58 94 102 71 43 34 36 40 43 49
7 8 7 8 9 8 9 8 12 13 20 58 83 76 73 72 79 92 79 64 65 58 48 44 38 33 29 26 26 28 29 27 29 30 29 26 20 18 17 16 17 17 17 17 18 19 22 24 22 21 22 22 22 20 16 15 19 26 31 47 79 99 102 103 100 103 103 92 88 91 92 88 88 95 101 104 103 104 101 99 102 87 81 97 74 40 52 85 101 79 44 32 34 39 43 48 56
7 7 7 7 8 8 8 8 10 11 14 43 76 89 96 91 83 88 78 62 66 64 51 46 41 34 29 27 26 28 30 27 28 30 30 28 22 18 17 17 18 18 19 19 19 19 21 22 23 23 25 27 26 26 24 19 17 17 22 28 41 58 69 71 67 72 80 81 80 78 78 82 85 88 92 95 98 103 102 101 98 85 94 94 53 43 76 95 83 49 30 34 39 45 49 55 60
7 7 7 7 7 8 8 7 8 10 11 27 60 90 102 101 96 90 75 61 66 69 57 48 43 36 29 27 27 27 30 29 27 29 30 29 24 18 17 17 18 19 20 21 22 23 25 25 26 28 30 31 31 30 31 30 27 23 22 21 21 23 26 27 27 34 46 54 61 65 65 69 74 78 84 92 100 104 100 100 97 94 100 76 40 60 91 82 54 31 32 41 44 50 53 53 49
7 7 7 8 7 7 8 8 8 8 13 19 38 80 103 98 100 97 77 61 64 71 63 51 46 40 31 27 28 28 29 30 27 27 29 31 27 20 17 17 18 19 19 21 23 25 27 29 30 31 32 32 31 32 34 35 36 34 33 31 28 25 21 20 20 26 40 55 66 71 73 76 81 85 88 91 94 95 92 95 101 105 92 59 54 85 84 53 34 33 41 45 47 48 44 37 32
7 7 7 7 7 7 7 7 9 6 14 20 25 69 105 98 100 103 78 57 59 68 64 54 48 44 35 28 28 29 29 30 28 26 27 30 30 25 19 16 16 17 18 19 22 24 26 28 30 31 32 33 33 32 33 35 36 36 36 35 34 33 29 24 24 30 46 62 73 78 79 78 80 82 84 88 90 93 97 101 104 94 69 60 80 87 57 33 33 41 44 44 42 36 30 28 28
8 7 7 7 6 7 8 6 9 7 9 17 23 61 102 102 99 96 72 54 57 66 65 56 49 46 40 31 28 30 30 31 29 26 25 28 31 30 24 19 15 14 15 17 19 21 23 25 27 29 31 33 35 35 35 35 35 35 35 34 34 34 33 30 26 29 46 67 77 73 70 70 71 73 81 90 93 93 93 89 81 70 67 78 78 55 34 34 41 43 41 36 30 26 26 27 28
8 8 7 7 7 7 11 8 7 9 7 15 31 59 93 102 100 95 77 62 59 65 67 59 52 48 44 36 29 30 31 31 31 27 25 26 30 31 29 24 18 14 12 14 16 19 22 25 27 27 28 30 32 35 37 37 36 35 34 33 32 32 32 32 30 28 41 71 89 78 66 69 76 79 82 85 83 79 76 74 73 71 72 66 46 32 35 41 41 38 32 26 24 25 26 28 30
7 9 8 7 8 7 14 12 6 10 6 14 34 54 80 90 98 103 85 65 60 68 69 60 55 50 46 42 32 30 32 32 32 30 26 25 28 30 31 30 25 19 15 12 14 18 21 25 26 26 26 28 30 32 36 39 39 37 36 34 32 32 32 33 34 31 33 54 82 89 84 82 83 85 85 85 85 85 85 82 75 62 47 36 31 36 41 40 35 29 24 23 24 25 28 31 35
7 8 8 7 9 8 16 15 8 12 9 11 17 38 79 88 91 103 83 62 63 71 71 59 56 54 48 46 38 31 32 33 33 32 29 25 26 29 31 32 29 25 20 14 13 15 20 23 25 26 26 26 27 30 34 38 40 40 38 36 34 33 34 35 35 34 31 32 46 63 72 71 67 64 63 66 69 69 67 58 44 35 31 32 37 41 39 34 27 22 22 24 26 29 33 36 38
7 7 8 8 9 7 12 14 10 11 14 17 7 27 89 103 96 104 84 65 67 73 72 58 55 57 50 48 44 35 31 33 35 33 32 28 26 28 29 31 30 28 26 20 14 13 17 22 25 26 25 25 26 29 34 38 41 42 41 38 34 34 37 40 39 37 35 31 29 31 36 38 36 34 34 35 37 36 34 30 29 31 33 36 39 38 34 26 21 22 25 27 31 36 39 43 46
7 7 8 6 9 9 8 14 16 11 10 18 10 20 70 85 84 100 93 78 78 79 73 59 55 58 54 50 48 41 33 33 36 35 34 32 27 27 29 29 29 29 29 26 19 13 15 20 25 26 24 24 25 26 32 39 42 43 42 38 32 33 38 43 43 41 37 34 32 30 28 28 27 27 28 26 26 26 27 29 32 34 36 38 37 33 25 21 22 26 30 35 40 44 48 52 54
8 7 8 5 15 24 14 11 18 16 9 12 12 14 30 34 38 67 88 90 89 86 76 61 58 60 58 54 49 46 38 33 37 37 35 35 31 28 29 29 29 29 30 30 25 16 14 20 24 24 23 23 23 24 28 34 40 41 39 35 30 30 36 43 46 44 38 34 32 31 30 29 29 29 29 30 29 29 31 32 33 36 38 37 30 24 21 24 29 33 38 44 48 52 55 58 60
8 7 9 5 13 27 20 10 14 19 14 11 13 13 15 13 12 30 58 82 95 93 80 65 58 61 62 58 51 48 42 35 37 39 38 37 34 30 30 30 29 30 29 30 29 21 15 18 23 24 21 21 22 22 24 27 32 35 34 31 27 26 30 37 44 44 40 36 33 33 33 32 33 33 32 32 31 31 31 33 36 39 36 29 24 22 25 30 36 42 47 50 53 58 61 64 66
8 7 9 8 6 13 16 12 11 14 14 13 14 14 14 15 14 14 27 62 95 97 80 64 55 57 63 63 56 51 47 38 35 39 40 40 39 34 31 31 30 31 30 30 30 24 18 18 22 25 21 19 20 20 21 23 25 28 29 28 27 26 26 29 35 41 41 39 37 35 34 35 34 34 34 33 33 33 34 36 39 37 28 23 22 25 31 38 44 48 51 54 59 63 65 67 68
8 7 7 9 7 7 9 11 11 12 12 17 20 16 15 16 15 13 13 41 84 97 83 63 49 50 60 66 61 53 49 42 35 37 41 43 44 38 33 33 32 32 32 31 30 25 20 18 21 25 24 19 18 19 19 20 20 22 23 24 25 25 25 27 28 32 37 38 38 37 36 36 36 35 33 32 33 33 36 39 36 28 22 22 25 32 38 44 48 50 55 59 62 64 64 65 67
7 8 7 7 8 7 7 9 13 14 12 16 21 17 15 15 14 15 12 24 58 87 90 70 49 47 57 65 64 56 52 47 38 35 39 43 47 44 37 34 34 34 33 32 31 27 21 19 20 23 26 23 18 18 18 18 18 19 20 21 22 24 25 26 27 28 31 33 34 35 35 35 34 32 31 31 32 34 37 35 28 22 22 25 31 38 43 46 50 54 58 61 62 63 63 64 66
6 7 8 7 8 7 7 9 10 12 14 13 14 14 15 14 12 13 13 15 33 59 77 73 54 45 51 58 63 63 58 53 44 35 37 41 46 49 42 36 35 36 36 34 31 29 24 22 21 21 25 26 22 18 17 18 17 16 18 19 19 21 23 25 27 27 28 29 30 31 31 32 31 29 28 29 31 33 33 27 22 21 24 30 36 42 45 48 52 55 58 60 61 62 62 62 61
7 6 7 7 8 8 7 8 9 10 17 18 12 12 14 14 13 12 12 14 20 31 46 65 64 51 48 50 54 63 63 59 52 40 35 38 43 50 49 41 37 37 37 36 34 30 26 25 25 23 23 26 24 20 18 17 17 16 16 18 18 18 20 22 25 27 28 29 30 30 30 30 29 28 27 28 29 28 26 22 20 24 28 34 40 43 46 50 53 56 56 57 59 59 59 58 58
6 6 7 7 7 8 7 8 8 8 14 18 15 14 14 15 15 12 11 13 18 17 22 52 73 60 51 49 42 50 63 63 57 47 37 34 37 45 53 50 42 39 39 38 37 33 29 27 27 28 25 25 25 22 19 17 16 16 15 16 16 16 18 20 22 25 26 28 29 30 31 31 30 28 27 26 25 23 20 20 22 26 32 36 39 42 46 50 53 55 55 56 56 55 55 56 57
8 6 6 7 7 8 8 8 8 8 9 12 13 15 13 12 14 14 13 14 17 15 18 53 88 76 58 55 39 36 57 67 62 56 44 35 34 38 47 55 50 42 40 40 40 36 33 30 28 31 31 28 26 23 20 18 16 16 16 15 15 15 15 16 18 21 23 25 26 27 27 28 28 26 25 23 20 19 18 21 25 29 33 36 38 40 44 48 52 54 55 54 51 51 52 54 54
9 8 6 6 6 7 8 8 8 8 9 9 9 12 11 10 13 13 12 15 18 21 27 56 91 87 67 61 44 31 48 67 68 65 55 41 37 36 38 46 53 50 44 42 42 39 36 34 30 31 33 33 31 27 22 19 17 15 15 15 14 13 13 14 15 16 18 20 21 22 22 23 23 21 20 19 17 17 19 23 27 30 33 34 36 39 42 47 50 53 52 49 49 50 51 50 49
9 9 7 6 6 7 7 7 9 8 9 9 8 9 11 13 18 19 17 14 17 26 33 49 75 85 76 65 46 31 40 64 74 71 66 52 41 40 39 39 46 53 51 46 44 43 39 37 35 32 33 35 35 34 29 23 19 17 15 15 14 13 12 13 13 13 14 14 15 17 17 17 17 17 16 16 15 17 21 25 28 30 31 33 35 37 41 46 49 50 48 47 47 48 48 46 45
9 9 9 8 7 7 7 7 8 8 9 9 8 9 10 12 19 29 29 20 16 20 28 45 63 72 76 69 49 33 30 52 76 79 73 64 49 42 43 40 41 49 55 52 47 45 42 38 38 36 34 35 36 37 36 31 25 19 16 15 14 14 13 11 12 12 12 12 12 13 14 15 14 15 15 14 15 18 22 25 27 28 29 31 34 37 40 44 46 47 47 46 45 45 46 45 44
10 9 9 8 8 7 7 8 7 8 9 8 9 8 8 12 16 29 40 34 18 10 24 51 63 64 73 70 51 37 27 37 70 85 79 71 58 48 46 45 42 45 54 58 52 47 45 41 39 39 38 37 37 38 39 38 33 27 20 16 14 15 14 13 12 13 12 12 11 12 13 13 13 14 14 14 16 19 22 25 26 26 28 30 33 36 39 41 43 45 45 43 43 44 44 44 43
10 10 9 8 9 8 8 8 7 8 7 10 16 10 7 15 23 31 40 35 16 13 41 72 78 77 78 70 56 42 30 32 59 84 86 77 67 57 51 49 47 45 49 58 58 52 48 44 40 40 40 40 41 41 40 40 39 36 29 22 17 14 15 14 12 12 13 12 11 12 12 13 13 13 13 14 16 19 22 24 25 25 27 30 33 34 37 40 41 43 43 42 42 43 43 43 42
10 10 9 8 9 9 9 9 7 8 6 10 17 13 8 14 22 28 32 40 49 59 78 90 89 88 80 76 73 51 30 30 49 78 89 81 76 69 60 54 52 49 47 51 58 57 51 46 43 42 42 42 43 44 43 41 40 41 39 32 24 17 15 15 14 13 13 13 12 12 12 12 12 12 12 13 16 19 22 23 24 25 26 29 32 34 35 37 39 40 41 41 42 42 42 42 42
10 10 9 9 10 9 9 9 8 8 7 8 10 9 11 10 12 21 24 46 85 99 96 96 94 91 83 80 79 56 39 36 41 66 87 84 80 78 70 63 58 54 50 49 55 58 53 47 44 44 44 44 45 46 46 45 42 41 42 41 36 27 19 15 14 14 13 13 13 13 12 12 12 12 12 13 15 17 20 21 23 24 26 29 30 32 34 34 36 38 40 41 42 41 41 42 43
10 10 10 9 10 9 9 10 9 9 7 7 8 7 11 10 12 22 21 39 87 106 96 98 100 96 90 86 76 56 50 51 45 57 80 88 88 86 79 73 66 60 56 51 52 58 56 47 43 45 46 46 46 45 46 47 47 45 42 43 43 40 33 22 16 14 14 14 14 13 13 12 12 12 12 13 15 16 18 20 22 24 26 28 29 31 33 33 34 36 39 41 42 42 42 44 46
11 10 10 9 10 10 10 10 9 10 8 6 8 7 9 12 17 28 26 30 72 104 102 98 101 102 101 94 79 57 48 58 64 65 74 88 95 93 87 80 74 67 61 56 54 56 56 49 42 43 45 46 46 45 46 46 47 48 46 44 44 46 44 36 26 18 14 14 14 14 14 13 13 13 13 14 14 16 18 19 21 24 25 27 28 31 32 33 34 36 39 41 41 41 41 42 44
12 11 10 9 10 10 10 11 8 10 10 6 8 7 9 16 20 27 29 26 50 87 103 102 99 103 106 94 78 62 51 58 74 80 82 91 101 102 95 88 82 76 68 63 59 56 55 51 44 43 45 47 48 47 48 47 48 49 49 47 45 45 47 46 41 31 22 16 14 14 15 15 15 14 14 15 15 16 17 19 20 22 25 26 28 29 31 32 33 35 36 38 38 39 39 39 41
13 12 11 10 11 10 9 10 9 9 10 8 8 7 8 17 21 21 23 25 36 57 83 102 103 101 102 90 74 67 62 60 67 79 88 93 100 106 103 97 90 84 78 72 66 61 57 53 48 45 47 49 49 49 49 49 49 50 50 51 48 45 45 46 47 45 38 28 20 16 15 15 16 16 15 15 16 17 17 18 20 21 23 26 27 28 30 31 33 35 35 35 36 37 37 38 40
15 13 12 11 10 11 10 9 10 9 9 9 9 8 7 10 18 24 22 23 27 31 47 73 88 93 91 83 74 69 70 69 62 66 83 92 96 101 105 104 98 91 88 83 76 68 61 57 53 49 49 52 52 52 50 50 51 51 52 53 51 49 46 44 45 48 49 45 36 27 20 16 15 16 16 16 16 17 18 19 20 21 23 25 26 28 30 31 32 34 35 35 36 36 37 37 38
16 14 13 13 11 10 10 10 10 9 9 10 9 9 11 10 10 17 18 17 20 22 25 32 44 63 71 71 75 70 70 80 70 57 72 90 96 99 102 104 101 96 94 91 85 77 67 60 57 53 51 54 55 55 53 51 52 53 54 54 53 51 48 46 44 45 48 51 50 45 36 27 20 16 15 17 17 17 18 19 20 21 22 24 25 27 30 31 32 33 34 35 35 35 36 36 36
17 16 14 14 13 11 10 10 10 10 8 10 9 7 12 14 10 10 13 16 18 19 22 21 23 39 49 56 73 73 68 87 87 63 63 87 100 101 103 105 104 101 98 95 90 84 75 65 61 58 53 53 55 54 54 52 50 51 53 54 55 54 51 48 46 44 45 48 51 52 50 44 36 27 19 16 16 18 19 20 20 21 22 23 25 26 28 30 30 31 32 32 33 35 36 36 35
Wind_Speed
8 9 11 13 14 15 18 20 21 23 24 25 26 28 29 30 31 32 32 32 31 29 28 26 23 21 19 18 16 14 12 10 10 10 10 11 13 14 15 16 14 13 16 16 19 21 18 17 16 16 16 15 15 16 19 19 17 15 13 13 13 14 15 15 15 16 16 17 16 15 16 17 18 18 16 15 15 16 15 15 15 16 15 14 13 13 12 11 9 11 13 14 14 11 9 14 17
7 8 9 12 13 14 17 20 21 22 23 24 24 27 29 29 30 31 32 32 31 30 28 26 24 21 18 18 17 14 13 11 8 8 8 10 12 14 15 17 15 14 16 14 19 23 21 20 18 17 18 18 18 17 17 17 16 15 15 15 16 19 19 14 12 13 14 18 17 16 17 20 22 21 20 19 17 16 16 15 15 16 16 16 15 15 13 12 10 12 14 14 15 10 9 17 19
6 6 7 10 12 13 16 19 20 22 23 23 24 26 28 29 29 30 31 31 31 30 28 27 25 21 18 17 17 15 13 11 8 6 6 7 9 12 15 16 16 16 16 14 17 20 21 21 20 19 21 20 20 19 17 16 16 16 17 18 20 23 21 17 15 13 15 20 19 18 19 21 23 22 21 18 16 14 14 14 15 14 14 15 15 15 15 14 13 15 14 13 14 10 12 20 21
5 6 7 8 10 12 15 18 18 21 22 22 23 24 27 28 28 29 30 31 31 30 29 28 25 22 18 16 16 15 14 12 10 7 5 3 5 9 13 15 16 16 15 15 15 17 18 20 20 20 21 20 20 20 19 18 18 17 18 20 23 26 23 21 18 15 15 19 19 20 20 22 22 20 18 15 12 12 12 13 14 14 13 14 15 16 16 16 16 17 15 12 12 12 16 22 23
4 6 7 7 8 11 14 17 17 19 22 22 22 23 26 27 28 28 29 30 30 30 28 28 26 23 19 16 15 14 14 13 12 10 8 6 4 3 8 13 16 16 16 16 15 16 17 18 20 20 20 20 19 20 20 20 19 20 20 18 21 24 21 20 21 19 16 18 20 21 21 22 20 18 16 12 11 11 12 12 12 12 13 14 15 15 14 15 16 17 16 12 12 14 18 23 24
4 5 7 7 7 10 13 15 16 18 20 21 21 21 24 26 26 27 29 30 30 29 28 27 26 24 21 17 14 13 13 13 13 13 11 10 9 7 6 8 12 15 16 17 16 16 17 18 20 20 20 21 20 20 21 21 21 22 21 18 18 17 16 18 18 16 14 16 18 19 20 20 18 17 14 12 11 11 11 12 11 11 12 13 13 12 12 13 16 17 16 13 14 16 18 22 22
4 5 6 7 8 10 12 13 15 18 20 20 19 20 22 25 25 26 28 29 29 29 28 26 25 24 22 18 15 12 12 12 13 13 13 13 12 11 10 9 8 10 12 15 17 16 16 17 19 20 20 21 22 22 23 23 22 23 22 19 16 14 16 15 10 10 12 16 17 15 15 16 16 14 12 12 11 10 10 11 11 11 11 10 10 11 12 13 14 15 14 14 16 17 18 20 18
5 5 5 7 8 8 11 12 14 17 19 18 18 18 21 23 24 25 27 29 29 29 28 26 25 24 22 19 16 13 12 11 12 12 12 13 13 12 12 11 10 8 7 10 12 14 15 16 17 19 21 22 22 23 23 23 21 21 22 19 16 18 20 14 9 13 18 17 15 13 13 13 14 12 11 11 11 10 9 10 10 10 8 8 9 11 12 13 13 14 14 13 15 17 18 18 17
6 6 5 6 7 7 9 10 12 16 18 18 17 17 19 21 23 25 27 29 29 28 27 26 24 23 22 20 17 14 12 11 10 10 10 11 11 10 10 10 9 8 6 6 8 10 12 14 16 18 21 21 21 22 21 21 20 19 20 20 21 23 23 17 16 20 20 17 14 13 11 11 12 11 9 9 10 10 9 9 10 9 8 8 10 11 12 13 13 13 14 13 14 18 20 18 19
7 6 5 5 6 7 7 8 10 14 17 17 15 15 18 20 22 24 26 28 29 28 27 25 24 23 22 21 18 16 14 12 11 10 9 9 8 8 8 8 7 6 5 5 6 6 8 10 14 17 19 20 21 23 23 23 23 22 22 23 25 24 22 19 19 19 16 14 12 9 8 8 8 7 7 6 7 8 8 9 10 10 9 9 10 11 12 12 12 13 14 14 15 18 19 17 19
8 7 6 5 5 6 6 6 9 11 14 16 14 14 16 19 21 23 26 28 28 28 27 25 24 23 21 20 19 17 16 14 12 11 10 9 7 6 5 5 5 5 5 5 5 5 6 8 11 14 16 18 19 20 20 20 20 20 19 19 20 19 18 17 15 14 13 13 10 9 11 9 6 6 6 5 4 6 7 9 11 12 11 10 11 11 12 12 12 13 14 15 16 17 17 16 19
9 8 6 4 4 5 5 6 8 9 12 14 13 13 14 17 21 22 25 27 27 27 27 25 24 23 22 20 19 18 17 15 14 13 12 10 8 5 4 3 3 4 5 5 5 4 5 8 10 12 13 14 15 15 14 14 13 14 15 15 15 16 16 15 13 14 14 14 10 8 12 12 8 7 6 5 6 6 7 8 11 12 12 11 12 12 11 11 12 13 14 15 15 16 16 17 19
10 9 6 5 4 4 4 5 7 7 10 12 12 12 13 16 20 21 23 25 26 27 26 25 24 24 23 21 19 18 17 16 16 15 14 12 9 7 5 3 2 3 5 5 5 5 6 8 9 11 12 13 12 12 13 13 12 11 14 16 16 15 16 16 13 14 16 16 11 7 11 12 9 8 6 7 10 9 8 8 8 10 12 12 13 13 12 12 12 14 14 14 13 15 17 17 16
11 10 7 6 5 4 4 4 6 6 8 10 11 11 12 15 18 20 22 23 25 26 26 25 24 24 23 22 20 18 17 16 17 16 15 13 11 9 7 4 1 2 5 6 6 6 7 8 9 10 12 12 11 10 11 13 13 13 16 18 16 14 15 16 13 15 17 16 13 9 10 10 8 10 9 10 11 9 10 9 9 10 11 11 12 12 12 13 14 15 15 13 12 15 16 15 14
13 11 9 7 7 5 4 3 5 6 7 9 9 9 11 13 16 19 20 22 24 26 26 25 24 24 23 22 21 19 17 16 17 17 16 15 13 12 9 6 2 1 3 4 6 6 6 7 7 9 12 13 12 10 9 10 12 13 16 16 14 12 12 12 12 13 13 12 12 12 11 9 10 11 8 8 9 7 8 9 10 10 9 10 10 10 11 13 14 16 14 12 12 15 15 14 14
14 12 10 9 8 7 5 3 3 4 5 7 7 8 9 11 14 17 19 21 23 25 25 24 24 24 23 22 21 20 18 17 17 17 17 16 16 14 12 9 5 2 1 1 3 4 4 5 5 7 11 13 13 12 10 9 10 12 14 13 11 11 11 9 12 13 11 7 8 10 9 7 9 10 7 10 14 11 8 10 12 10 10 11 10 9 11 13 15 15 13 11 12 15 15 14 14
16 14 13 11 9 8 6 4 2 3 4 5 5 6 7 9 12 15 18 19 21 23 24 24 24 24 23 23 22 21 20 18 18 18 18 18 18 17 14 11 8 5 3 1 2 2 2 3 3 6 9 12 14 14 13 11 10 11 12 12 11 13 13 11 12 14 13 8 5 6 7 9 10 11 11 14 16 12 10 11 12 11 12 11 9 9 11 14 14 14 12 10 12 16 15 13 13
18 16 15 13 11 9 8 6 3 2 3 3 3 3 5 7 10 13 16 18 19 22 23 23 23 23 23 23 22 22 21 20 19 19 19 19 19 18 16 13 10 7 5 4 3 1 1 1 2 4 7 10 14 15 15 14 13 11 10 13 14 14 14 13 13 13 13 10 6 5 10 14 14 12 11 13 14 11 10 10 10 12 12 10 9 9 11 13 14 13 11 9 12 16 14 11 12
20 18 17 15 13 11 11 9 6 4 4 3 2 2 4 6 8 11 14 16 17 19 22 22 22 22 22 22 23 23 22 21 21 20 20 20 19 19 18 15 12 10 8 6 5 3 3 2 2 3 5 7 11 14 16 17 17 15 12 13 15 15 15 13 15 16 12 9 10 10 13 15 13 12 11 13 14 11 10 10 11 12 11 9 8 9 10 11 12 11 10 10 13 14 12 10 10
22 20 19 18 16 14 13 11 9 7 5 4 2 1 2 4 6 9 12 14 16 17 20 21 21 21 21 22 23 23 22 22 22 21 21 20 19 19 18 16 13 11 10 8 6 5 4 4 4 2 3 4 7 10 13 15 18 20 17 14 15 16 17 15 16 19 16 14 15 13 16 18 16 16 16 17 16 13 13 12 13 12 11 9 8 9 10 10 10 9 9 10 12 12 10 8 8
24 22 21 19 18 16 15 13 11 10 8 5 2 1 1 2 4 6 9 12 14 15 17 19 20 20 20 21 22 23 22 22 22 22 21 20 20 19 18 17 15 13 12 10 8 6 6 6 5 3 2 1 3 5 8 11 14 18 19 18 18 18 19 19 18 19 19 20 21 16 14 16 17 18 17 17 16 14 14 14 13 12 9 8 7 9 9 10 9 8 9 10 11 9 7 6 6
27 25 23 21 20 18 16 15 13 12 10 6 3 2 1 1 2 4 6 9 12 13 15 17 18 19 19 20 21 22 23 23 23 22 22 21 20 19 19 18 16 14 13 12 9 7 6 7 6 5 4 2 0 2 5 9 12 15 18 19 20 20 21 22 22 22 22 22 24 23 18 15 14 15 15 14 14 14 14 13 13 10 8 8 7 8 8 8 8 8 9 10 9 6 4 5 5
29 27 25 23 22 20 18 17 15 14 11 8 4 3 3 3 2 2 4 7 9 11 12 14 16 18 18 19 20 21 22 23 24 23 22 21 20 20 20 18 17 16 15 13 11 9 7 7 7 7 7 5 3 0 3 6 10 12 16 17 17 17 18 21 23 24 25 24 24 25 25 21 16 15 14 14 15 15 14 13 12 10 8 7 7 6 6 6 6 7 9 8 6 3 3 4 5
31 29 27 25 23 22 21 19 17 16 13 11 7 4 6 6 4 3 2 5 7 9 10 12 14 16 16 17 19 20 21 23 24 24 23 22 21 21 20 19 17 17 17 15 13 10 9 8 9 9 9 8 6 4 2 2 5 8 11 15 16 15 16 18 20 22 24 24 23 24 26 26 23 19 17 16 16 16 14 13 12 9 7 6 5 4 4 5 6 7 8 6 3 2 4 5 7
33 31 29 27 26 25 23 21 19 17 15 13 10 7 8 9 7 6 4 3 5 6 8 9 12 14 15 15 17 18 20 23 24 24 23 22 22 21 20 19 18 19 19 18 15 13 11 11 11 12 11 10 9 7 6 4 4 4 6 10 14 15 16 16 16 18 20 20 21 22 22 24 25 22 19 18 17 16 14 14 13 9 7 6 4 5 5 6 7 7 6 3 1 4 5 7 8
35 33 31 29 28 26 25 23 21 19 16 15 13 9 10 11 10 9 7 4 5 5 6 7 9 12 14 14 15 17 18 22 24 24 24 23 23 21 20 19 19 19 20 20 18 16 14 14 14 14 13 12 11 10 9 8 7 6 6 6 9 11 13 14 14 16 18 18 19 19 19 20 22 22 21 19 18 16 16 15 12 9 8 6 5 7 6 5 6 5 2 1 3 5 7 8 9
37 35 33 31 30 28 27 25 23 20 17 16 15 11 11 13 12 11 9 6 5 4 4 4 6 9 12 12 13 15 16 20 23 24 24 23 23 21 20 19 19 19 20 21 20 18 17 16 16 15 14 13 12 12 11 10 10 10 9 8 7 7 8 9 10 12 14 15 15 15 15 16 18 19 18 17 16 15 15 14 11 10 10 7 6 6 4 4 3 1 2 3 5 7 9 10 10
38 37 35 34 32 30 28 27 25 22 19 19 19 16 15 15 12 11 11 8 6 5 4 2 3 6 9 11 11 13 15 18 21 23 23 23 22 21 20 19 19 19 19 20 20 20 19 18 17 16 15 14 13 12 12 11 10 10 10 9 8 8 8 8 8 9 11 12 13 13 12 13 14 14 14 14 13 13 14 13 12 12 10 7 6 5 4 2 1 3 4 6 7 10 11 12 14
39 38 37 36 34 31 30 29 27 25 23 22 21 19 17 17 16 13 12 10 8 6 5 2 1 4 7 9 10 11 13 16 19 22 23 23 22 21 21 20 20 19 19 19 20 20 18 18 17 16 16 14 13 12 12 11 11 10 10 9 8 8 9 9 9 10 11 12 13 14 15 15 15 14 14 13 13 13 14 14 14 11 8 7 7 4 1 4 6 6 6 9 11 13 16 18 20
41 40 39 38 35 33 32 31 30 28 26 24 23 22 19 19 21 18 14 13 12 9 7 5 2 1 4 7 9 9 11 14 17 20 21 22 21 21 21 21 21 20 21 20 20 20 19 18 17 17 16 15 13 12 11 11 11 11 10 9 9 9 10 10 11 11 12 13 14 15 17 18 17 17 16 15 14 14 13 13 12 10 8 7 5 4 7 8 7 8 10 13 16 18 21 23 25
42 41 40 39 37 36 34 33 33 31 29 27 25 26 24 22 22 19 16 15 14 11 9 7 4 2 1 5 7 7 9 12 15 18 19 20 20 21 21 21 21 22 22 22 21 21 20 19 18 18 17 16 14 12 11 11 11 11 11 10 10 11 11 12 13 13 13 13 13 14 16 17 18 17 16 15 14 13 12 11 10 9 8 7 8 10 11 9 10 13 16 19 21 23 25 27 28
42 42 41 41 40 38 35 34 35 33 33 32 29 28 28 26 24 21 19 17 16 13 10 9 7 4 2 3 5 6 7 10 13 15 17 18 19 20 20 21 22 23 23 23 23 22 21 20 19 19 19 18 16 14 12 11 11 11 12 12 12 12 13 13 15 15 14 14 13 14 14 15 16 15 16 15 14 13 12 11 10 10 11 13 14 13 11 12 15 18 21 23 25 27 28 30 31
43 43 43 43 42 40 38 36 37 36 35 35 34 30 28 29 28 25 22 20 18 15 12 11 9 6 5 2 4 5 6 7 10 12 14 16 18 19 19 20 21 23 24 24 24 23 22 21 21 21 20 20 19 17 15 13 12 11 12 12 13 13 14 15 16 17 16 16 15 14 14 14 14 15 16 16 16 15 14 14 15 16 17 17 16 14 14 17 21 24 25 26 28 30 31 32 33
44 44 44 44 43 42 40 38 38 39 37 37 37 34 29 29 29 27 24 23 21 17 15 14 11 9 7 5 3 4 5 6 8 10 12 14 15 17 18 19 21 23 24 24 24 23 23 22 22 22 22 22 21 20 17 16 14 13 13 13 13 14 15 16 17 18 18 17 18 17 17 17 17 18 19 19 19 19 19 19 19 19 18 17 16 17 19 23 26 27 28 29 31 32 33 34 34
44 45 45 45 43 43 42 41 41 42 41 40 40 38 34 32 30 27 25 24 23 20 17 15 12 11 9 7 5 4 5 5 6 8 9 11 13 15 17 18 20 22 23 24 24 24 23 23 23 23 23 23 23 22 20 18 16 15 14 14 14 14 15 16 17 18 18 18 19 19 19 19 19 20 20 21 21 22 22 21 20 19 19 18 19 22 25 28 30 31 31 32 33 33 34 34 34
44 45 46 46 43 42 44 45 44 43 43 42 42 41 39 36 34 31 27 25 25 21 18 16 15 13 12 10 8 6 5 5 6 7 7 8 10 13 15 17 19 21 22 23 23 23 23 23 23 23 24 24 24 23 22 20 19 17 16 15 15 15 15 16 17 18 18 18 19 19 19 19 19 19 19 20 21 21 21 21 20 20 20 21 24 28 30 32 33 33 33 33 33 34 34 33 33
44 45 46 47 46 43 45 47 46 44 44 44 43 42 40 39 37 35 32 28 26 24 22 19 18 16 15 12 10 8 7 6 7 6 6 6 7 10 13 15 18 20 21 22 22 23 23 23 23 24 24 25 24 24 23 22 20 19 18 17 16 16 16 16 17 17 18 18 18 18 19 19 18 18 18 19 19 20 20 21 21 20 22 26 29 32 33 35 35 35 34 33 33 33 32 32 31
43 45 46 47 48 46 46 48 48 47 46 46 44 43 41 40 39 37 35 32 29 28 27 24 22 19 17 15 12 11 9 8 8 7 6 5 6 7 11 13 16 18 20 21 22 22 22 22 23 23 24 25 25 25 25 24 23 21 20 19 18 17 16 16 17 17 18 18 17 17 18 18 18 18 18 19 20 20 21 21 21 22 27 31 33 35 36 37 36 35 33 32 32 32 31 31 30
42 44 46 47 47 48 48 48 48 48 48 47 45 45 44 42 41 39 37 35 33 32 30 27 24 22 19 17 15 13 11 10 9 9 7 6 5 6 8 12 14 16 18 20 21 21 22 22 22 22 24 25 26 26 26 25 24 23 23 22 21 19 18 17 17 17 17 17 17 17 17 17 17 18 18 19 20 21 21 21 22 27 31 34 36 37 38 37 35 34 32 32 31 31 30 29 29
43 44 47 47 48 49 49 48 48 48 48 48 48 47 46 44 43 41 39 39 37 34 32 30 27 25 22 19 17 15 13 11 10 9 8 7 7 6 7 10 13 15 16 18 19 20 21 22 22 21 22 24 25 26 26 26 25 25 24 23 23 22 21 19 18 18 17 17 17 16 16 16 17 18 19 19 20 20 21 22 26 31 35 36 37 38 38 36 34 32 31 31 30 29 28 28 27
44 45 46 48 49 50 50 49 49 49 49 50 51 50 49 47 45 43 41 41 40 38 35 32 29 29 26 21 18 17 15 13 11 10 9 8 8 8 7 8 11 13 15 17 18 18 19 21 22 21 21 23 24 25 26 26 26 25 25 25 24 24 23 21 20 19 18 18 17 16 16 16 17 17 18 20 20 21 23 26 31 35 36 37 38 38 37 35 33 32 31 30 29 28 27 27 26
46 46 46 47 47 49 51 51 51 51 50 51 52 52 50 48 47 46 44 42 42 40 38 34 32 32 29 24 20 19 18 16 14 13 11 10 9 9 8 8 9 12 14 15 17 17 17 20 22 22 22 22 23 24 25 26 26 26 25 25 25 25 24 23 22 20 19 19 18 18 17 17 17 18 19 20 21 24 27 31 35 37 37 38 38 37 35 33 32 31 30 29 29 27 26 26 26
48 47 46 46 46 48 50 51 52 52 51 51 53 53 52 50 48 48 46 43 43 42 40 37 35 34 32 27 23 21 20 19 17 16 14 12 11 10 9 9 8 10 12 14 15 15 15 17 20 22 22 22 22 23 24 25 25 25 26 25 25 25 25 25 23 22 20 20 19 19 19 18 19 19 20 22 24 27 31 35 37 38 38 38 37 35 34 32 31 30 30 29 28 27 26 26 26
48 48 49 47 46 47 49 50 51 52 52 53 54 54 54 53 50 49 47 45 45 43 41 39 37 35 34 31 27 24 22 21 19 18 17 16 13 11 10 10 9 9 11 13 13 14 14 14 17 20 21 22 22 23 23 24 25 25 25 25 25 26 26 26 25 24 22 21 20 20 20 20 20 21 22 24 27 31 34 37 38 38 38 37 35 34 32 31 30 30 29 28 27 27 26 26 26
49 50 50 48 47 48 48 49 50 51 52 53 55 55 55 53 51 49 48 47 46 43 41 40 39 38 37 35 31 27 25 24 22 20 19 18 16 13 12 11 10 10 10 11 12 12 12 12 14 16 18 20 21 22 22 23 24 25 25 25 25 26 26 26 26 26 25 23 22 22 23 23 23 24 25 28 31 33 36 38 38 38 37 35 34 32 31 30 29 29 28 28 27 26 26 26 26
50 50 50 50 50 50 50 50 50 51 53 54 55 56 55 53 50 48 48 49 48 45 43 42 42 42 40 39 35 31 28 27 25 23 21 20 19 16 14 12 11 11 10 10 10 10 10 11 11 13 14 16 18 20 21 22 23 24 24 24 25 25 26 26 26 26 26 26 25 25 25 25 26 26 28 30 33 35 37 37 37 37 35 34 32 31 30 29 28 27 27 27 26 26 26 26 26
50 51 51 52 52 52 52 52 52 52 53 54 55 56 56 54 52 49 49 51 52 50 48 47 46 45 44 42 39 35 32 30 28 26 25 23 21 18 16 14 13 12 12 11 10 9 9 9 10 11 12 13 15 17 19 20 21 23 24 24 24 24 25 26 26 26 27 27 27 27 27 27 27 28 29 31 33 35 36 36 36 34 33 32 31 30 29 28 27 26 25 25 25 25 25 24 24
50 52 54 54 54 54 55 56 54 53 52 53 54 55 56 55 53 52 51 53 55 54 51 49 48 47 47 45 42 38 34 33 31 29 28 26 23 20 18 17 16 14 13 13 11 9 8 8 8 9 10 11 12 14 16 18 19 21 22 23 24 24 24 24 25 26 26 27 27 28 28 28 29 29 30 32 33 34 34 34 33 32 31 30 29 29 28 27 25 24 24 24 24 24 24 23 23
50 53 55 55 55 56 57 58 57 55 54 53 54 55 57 55 55 56 55 54 56 55 51 49 49 50 49 46 43 41 38 35 34 33 31 29 26 23 21 19 18 16 15 15 14 11 9 8 7 8 9 10 10 12 14 15 17 19 20 21 22 23 23 23 24 25 25 26 27 27 28 28 29 30 31 32 33 33 33 32 31 30 29 28 27 27 27 26 24 23 23 23 23 22 22 22 21
50 53 54 54 56 57 58 59 59 58 57 56 55 55 58 58 59 61 58 55 55 54 51 50 50 52 52 48 44 44 41 38 37 35 33 31 28 26 23 22 20 19 17 16 16 14 12 10 8 7 8 9 9 10 12 13 15 16 18 20 20 21 22 22 23 23 24 25 26 27 27 28 28 29 30 31 31 31 31 30 29 28 27 26 26 25 25 25 23 22 22 21 21 20 20 20 20
48 52 54 54 55 58 59 60 60 59 59 59 57 57 58 60 61 62 58 56 57 56 54 52 51 52 54 51 47 46 44 41 39 38 36 34 31 29 27 24 23 22 19 18 17 16 15 13 11 9 8 8 8 9 10 11 13 14 15 17 19 19 20 21 22 22 23 23 24 25 26 27 27 28 29 29 29 30 29 28 27 26 25 24 23 23 23 23 22 21 20 19 18 18 17 17 17
46 50 53 54 55 58 59 61 62 62 62 62 59 58 58 59 61 61 59 60 60 58 57 56 54 53 55 54 51 49 47 45 42 40 39 36 34 32 31 28 26 25 23 20 19 18 17 16 13 11 10 9 8 8 8 10 11 12 13 14 16 17 18 19 20 21 21 22 23 23 24 25 26 26 27 27 28 27 27 27 26 25 23 22 21 21 21 21 20 20 18 17 16 15 15 14 15
44 48 51 52 53 56 59 62 63 64 64 63 61 60 60 60 60 61 62 64 64 61 58 59 57 54 55 55 51 51 50 48 45 43 41 39 36 35 34 32 29 28 25 23 21 20 19 18 16 14 12 11 9 8 7 8 9 11 11 12 14 15 16 17 18 19 20 20 21 22 23 23 24 25 25 25 25 25 25 24 24 23 21 20 20 20 19 19 19 18 17 15 14 13 12 12 12
42 46 49 51 52 55 58 61 63 65 65 64 64 64 62 61 61 64 66 65 66 65 61 59 59 56 54 54 52 52 52 50 48 46 44 42 40 38 36 35 33 30 28 26 24 24 22 21 19 17 15 13 11 10 8 8 8 9 10 11 12 13 14 15 17 17 18 18 19 19 20 21 22 23 23 23 23 23 22 22 21 21 20 19 18 18 18 18 17 17 16 15 13 12 11 10 9
43 44 46 49 51 54 57 59 62 64 66 66 66 67 66 64 63 66 69 67 67 70 67 62 61 58 55 54 54 54 54 52 51 49 47 46 44 42 40 38 37 34 31 29 28 27 26 24 22 20 18 16 14 12 11 9 9 9 9 10 11 12 13 14 15 16 16 16 17 17 17 18 19 20 21 21 21 21 20 20 19 19 18 18 17 17 17 17 16 16 15 14 12 12 10 9 7
44 45 46 48 51 54 56 58 60 63 66 67 68 69 68 66 66 67 70 70 70 73 73 69 65 63 60 57 57 56 56 55 54 52 50 49 47 46 44 42 40 37 34 33 31 30 28 26 25 23 21 20 18 15 13 12 11 10 10 10 11 11 12 13 13 14 14 15 15 15 15 15 16 17 18 19 19 19 18 18 17 17 17 17 16 16 16 16 16 16 15 13 12 11 10 9 7
45 47 48 50 51 53 55 57 60 63 65 68 71 71 69 68 70 69 68 71 73 74 76 74 70 68 66 62 59 59 58 57 57 55 53 51 50 49 47 45 43 41 38 36 35 33 31 29 28 26 24 23 22 20 17 15 14 13 12 11 11 12 12 12 13 13 13 12 13 13 14 13 13 14 15 16 17 17 17 17 16 16 16 16 15 15 15 15 15 15 14 13 12 12 11 10 9
43 46 49 51 53 54 55 57 61 63 64 68 71 72 70 71 73 72 70 72 74 75 76 76 72 68 68 67 63 61 61 59 58 57 54 53 52 51 49 48 46 44 42 40 38 37 35 33 31 29 27 26 25 23 21 19 18 16 14 13 13 13 13 13 13 13 13 12 12 11 11 12 12 12 12 13 14 15 16 16 15 15 15 15 15 15 15 15 15 15 14 13 12 12 11 10 9
Wind_Direction
18 11 12 18 26 23 20 23 24 25 24 20 20 21 21 20 20 22 25 26 26 30 32 36 44 48 50 55 63 74 88 111 141 158 167 174 177 181 177 185 194 188 187 190 191 187 184 189 191 193 201 210 203 194 193 196 200 197 193 201 219 228 220 213 225 237 238 242 248 259 270 275 277 276 280 284 279 270 265 266 260 252 249 250 250 261 280 285 279 292 311 317 304 293 306 326 334
15 14 15 17 24 23 20 22 23 25 24 22 21 21 21 20 20 22 26 28 28 30 33 35 42 50 53 56 61 70 81 98 121 150 171 181 183 188 188 191 197 194 196 198 193 191 190 191 194 199 203 208 209 205 199 198 198 199 203 208 218 227 227 224 233 243 244 246 257 277 284 285 286 285 286 285 277 269 267 264 256 252 252 254 259 267 276 280 277 292 308 313 303 289 307 323 328
11 15 13 17 21 20 20 21 21 23 25 24 22 22 22 21 20 22 26 29 29 30 34 36 39 48 56 59 62 67 76 90 107 133 159 181 189 194 195 196 199 199 202 201 195 194 195 194 196 201 205 208 209 209 207 204 200 203 213 219 225 230 234 248 251 243 245 247 261 283 283 280 284 286 284 280 273 268 267 261 257 256 257 261 267 272 275 278 280 292 302 309 308 298 308 317 319
5 10 8 13 17 16 20 19 17 21 25 26 24 23 23 21 20 22 26 30 31 31 33 37 38 44 54 63 65 68 74 84 93 108 125 154 190 200 200 198 198 201 205 205 202 200 199 199 201 203 205 209 210 210 209 208 204 210 225 223 226 235 243 254 249 236 247 255 269 285 282 281 284 289 290 285 277 268 263 259 257 260 264 270 275 278 278 279 282 288 296 306 310 302 306 309 309
353 358 359 6 13 13 21 20 16 19 24 27 25 23 23 21 20 21 26 31 33 32 33 38 39 40 48 61 68 69 72 82 88 93 97 96 101 163 191 197 199 202 207 212 212 208 205 206 210 211 209 211 214 214 214 215 209 216 233 228 222 231 240 244 237 240 267 279 283 285 283 285 287 291 293 289 279 268 262 259 258 263 269 273 277 281 281 281 282 285 291 299 298 293 303 305 303
335 343 349 2 9 10 21 21 16 19 24 28 27 24 24 22 20 21 26 31 33 34 34 37 40 40 44 54 67 73 73 79 86 90 91 88 84 93 128 168 192 203 211 218 219 214 209 210 214 216 215 216 219 220 221 224 217 218 230 230 224 224 230 239 246 257 281 286 284 285 282 282 284 286 286 282 275 266 263 262 260 264 272 275 275 280 285 284 282 285 287 290 291 293 306 304 299
324 325 344 3 7 9 18 19 17 21 24 28 29 26 24 23 20 22 26 29 33 35 35 36 40 41 42 49 61 73 78 81 86 89 90 88 86 87 95 111 143 180 201 214 220 217 211 210 212 214 216 219 221 222 225 227 223 223 228 229 230 236 247 257 266 270 269 269 274 279 277 275 275 276 275 272 268 263 261 262 263 267 274 277 277 281 285 286 287 288 287 292 294 297 305 300 300
316 312 334 355 359 10 17 15 16 21 25 28 31 28 25 23 21 23 27 29 32 35 35 36 39 42 42 44 53 65 79 87 91 91 89 89 88 87 89 95 104 125 161 192 206 208 206 208 211 213 214 216 220 224 227 228 226 224 227 232 239 250 259 263 254 253 259 264 273 273 271 273 270 268 267 267 261 254 254 256 262 267 272 277 283 287 290 291 292 289 287 291 287 290 300 297 300
308 307 319 338 351 10 21 16 12 20 26 28 32 30 25 24 23 25 28 29 30 33 36 36 38 43 43 42 46 55 69 82 91 94 91 88 87 88 89 93 99 110 136 167 182 186 190 200 209 213 213 213 217 223 228 230 230 230 230 235 240 248 254 252 247 255 261 262 271 273 272 277 271 266 265 266 258 245 243 246 255 261 266 279 289 293 298 299 294 286 283 282 278 286 294 293 296
297 299 301 324 346 3 21 19 11 18 27 29 32 32 27 25 25 27 29 29 30 32 34 36 37 41 45 42 42 48 58 68 79 87 90 89 90 93 93 98 105 121 146 170 178 174 176 193 204 208 210 213 217 222 227 230 234 237 236 238 239 243 246 244 245 253 255 252 259 259 252 262 266 266 263 265 252 234 229 236 248 257 265 281 295 297 297 301 296 284 283 284 284 287 292 293 296
282 291 292 308 334 354 11 14 11 20 25 28 35 34 29 27 28 29 30 30 29 30 33 35 36 39 45 45 42 44 51 59 67 75 80 83 87 93 96 104 116 141 167 180 180 179 187 200 206 205 207 210 214 216 220 224 229 233 232 234 234 233 235 235 238 242 238 233 235 237 232 227 233 253 262 261 236 218 224 237 249 254 262 280 297 300 294 297 294 281 281 286 286 289 293 296 297
263 278 284 289 309 338 358 2 11 24 21 24 37 39 31 30 31 30 31 31 28 29 31 34 35 37 42 46 44 44 48 53 60 65 70 72 73 75 81 100 132 166 183 186 178 179 195 210 215 213 212 213 214 212 211 210 213 220 222 225 228 227 226 224 228 229 223 218 216 233 241 229 220 232 248 254 233 215 223 240 247 248 257 276 294 299 293 291 286 278 280 285 289 296 300 299 302
249 262 270 268 276 310 335 353 7 19 15 16 35 42 34 32 33 32 31 32 29 28 30 33 34 36 41 45 45 45 47 50 55 59 61 63 62 58 60 72 138 197 204 198 183 183 198 211 215 216 218 217 214 211 208 201 191 203 217 220 222 223 222 219 222 226 218 213 209 221 248 245 234 222 216 229 231 221 213 227 245 254 262 276 292 293 288 286 280 275 282 286 295 309 312 310 310
240 248 254 252 252 276 307 343 6 13 5 6 30 43 39 35 36 35 34 32 30 28 29 31 32 34 40 43 45 46 47 49 53 56 57 57 54 51 50 50 54 224 216 202 190 192 202 210 211 213 211 206 202 198 204 203 194 205 221 223 222 225 228 223 225 233 226 218 210 215 245 251 245 231 214 217 232 229 216 223 241 253 262 276 289 288 285 286 279 278 285 288 300 318 319 317 314
234 239 242 242 241 251 277 325 7 13 356 356 24 45 41 37 38 39 37 34 32 29 28 30 31 33 39 42 45 47 47 48 52 55 56 53 50 46 45 44 33 281 225 199 190 196 203 205 206 207 201 200 203 195 203 212 210 220 231 230 226 229 233 228 232 238 238 236 226 222 236 242 243 243 229 235 258 259 233 229 235 240 258 278 288 288 291 293 287 285 287 286 301 319 321 319 317
231 233 235 234 233 235 252 290 359 10 349 356 27 47 42 37 38 41 39 35 33 31 29 29 30 32 37 41 45 48 47 48 51 53 53 51 47 44 41 39 32 8 302 172 171 190 197 201 205 204 197 202 204 195 206 218 221 229 237 236 223 220 223 229 239 238 231 236 240 228 231 242 248 251 248 266 274 272 263 243 235 243 263 279 289 292 300 302 297 291 287 286 306 321 323 324 324
228 228 231 229 225 227 237 251 318 351 333 355 39 51 42 37 37 40 40 37 35 34 31 29 30 33 36 41 44 48 48 47 49 51 51 49 46 42 39 37 31 20 9 49 116 166 181 186 200 208 201 204 201 198 209 210 213 224 231 231 216 216 221 224 232 238 233 216 215 226 230 235 235 238 235 252 260 256 257 246 241 253 262 278 292 300 307 306 301 296 290 293 317 324 322 326 327
226 225 227 226 222 223 228 227 236 294 299 329 29 41 42 40 36 39 40 39 37 34 33 31 31 34 36 40 44 48 49 48 48 49 49 48 45 41 38 36 32 23 17 34 57 72 109 145 178 207 206 208 206 208 213 205 204 210 219 226 222 226 230 227 220 228 243 226 202 211 236 238 230 228 221 229 240 238 242 240 253 261 262 281 297 306 311 305 300 300 294 301 322 322 318 324 323
226 224 225 226 220 218 221 219 217 233 263 285 327 356 37 41 34 37 39 40 40 35 33 33 34 36 37 39 44 48 49 49 48 48 48 47 45 41 38 35 30 24 20 32 45 49 60 82 122 193 207 211 213 216 219 213 210 206 208 217 219 228 230 228 220 220 229 220 214 213 230 237 227 231 224 217 228 232 237 243 257 261 264 283 299 311 311 301 298 299 295 303 319 317 315 320 318
227 224 223 224 221 217 215 216 217 228 251 265 288 326 39 40 28 34 37 38 41 37 33 34 37 38 38 39 42 47 49 50 50 49 48 47 47 43 39 36 30 24 21 29 39 40 44 58 79 129 186 203 215 219 223 221 218 211 209 211 209 216 220 219 218 222 218 211 220 220 227 232 220 223 224 218 227 237 247 253 254 257 271 283 298 311 308 300 296 299 300 305 313 311 310 316 320
228 224 222 223 222 218 215 216 215 223 242 238 222 274 34 36 27 32 34 34 39 39 34 34 39 42 41 40 40 44 47 49 51 50 49 48 47 46 42 38 32 26 24 29 34 33 37 48 62 70 97 154 209 221 226 223 220 215 213 216 214 213 216 216 215 221 220 214 217 216 225 233 220 215 215 216 228 238 247 251 252 259 276 285 296 306 305 301 297 302 306 305 308 306 310 321 332
230 226 222 221 221 220 216 215 214 218 231 225 210 244 267 335 18 29 27 30 35 39 35 34 40 44 43 42 40 42 46 48 51 51 50 49 48 47 44 40 35 31 30 33 37 35 39 46 57 63 67 69 158 220 224 219 217 216 215 218 220 219 221 223 223 224 225 222 217 215 219 229 222 214 212 212 220 229 240 250 256 263 278 283 290 298 299 298 299 305 304 303 303 305 319 332 341
231 228 223 220 221 221 218 215 214 214 220 224 226 255 271 294 319 338 9 22 29 36 36 33 40 46 45 45 42 41 45 48 51 51 51 50 49 48 46 42 38 36 37 41 44 44 44 47 52 59 63 62 55 134 219 217 214 215 215 214 213 218 224 226 228 228 230 230 225 220 220 225 227 227 226 220 221 233 245 256 256 260 274 277 281 285 284 293 299 298 297 297 293 296 328 336 347
231 229 226 221 219 221 220 216 215 212 212 221 229 260 278 283 284 273 313 3 14 31 36 31 39 48 48 47 45 42 44 48 51 51 51 51 50 50 47 44 41 41 43 46 49 49 47 45 45 50 53 56 56 62 97 178 202 206 207 206 205 212 222 226 228 230 233 233 230 226 225 226 229 233 236 231 231 238 248 255 253 256 269 269 268 258 260 278 282 289 292 283 271 315 341 352 4
231 230 228 223 219 220 221 218 216 212 208 215 222 234 261 270 271 259 259 323 349 18 35 30 35 48 51 49 49 46 45 47 50 51 51 51 51 52 50 46 45 46 48 51 53 52 49 46 45 47 49 50 54 61 75 98 131 162 179 194 203 212 222 228 231 231 232 232 230 227 227 226 227 230 234 235 235 236 240 243 243 251 256 244 231 223 235 259 276 290 288 274 330 357 7 15 16
230 230 228 226 221 218 220 220 216 214 208 212 220 224 242 252 256 250 243 272 315 354 24 29 29 46 54 51 52 50 47 48 50 51 51 51 51 52 52 50 49 50 53 56 57 56 53 51 49 52 53 52 55 61 71 83 98 115 131 157 186 203 214 222 226 224 224 226 224 222 222 222 224 227 232 237 237 234 231 230 234 238 229 222 220 222 239 268 288 294 282 36 26 24 27 27 25
230 229 229 227 224 219 219 220 217 214 209 211 218 215 220 230 238 244 236 244 283 321 354 26 23 39 57 55 55 55 52 50 51 51 50 52 52 53 54 53 52 52 55 60 62 61 59 57 56 57 58 56 57 62 69 79 87 96 106 117 136 156 176 192 200 205 208 209 209 208 208 209 213 218 222 225 225 222 219 213 211 209 209 217 221 231 280 307 305 298 96 59 43 40 39 41 48
229 229 229 228 226 221 218 219 217 213 208 211 216 204 200 212 222 235 230 233 259 284 309 359 18 29 57 60 59 59 57 55 52 51 50 52 53 53 54 54 54 54 55 60 63 65 63 61 59 60 60 59 60 62 67 75 81 89 96 103 109 116 125 138 154 168 177 180 178 176 176 179 184 190 196 198 198 199 194 188 189 195 205 217 222 253 309 325 110 107 86 61 55 54 60 68 70
228 227 228 227 226 223 219 218 217 213 207 210 216 207 202 211 211 218 225 235 248 256 276 275 7 19 54 65 63 64 63 61 57 53 51 52 53 53 54 54 54 54 54 58 62 64 64 63 60 60 61 61 61 63 67 72 77 81 85 90 95 98 103 109 119 133 145 151 149 146 144 145 149 153 158 162 165 168 170 179 190 197 203 213 229 259 275 123 114 99 78 70 72 77 81 80 77
229 227 227 226 226 224 220 218 217 215 209 208 215 211 209 212 206 210 226 236 242 242 258 256 216 5 49 69 71 69 68 66 62 58 53 53 54 53 53 54 53 53 53 55 59 62 61 61 59 57 59 61 62 64 68 72 75 78 79 82 85 88 93 97 104 114 124 131 134 134 135 136 138 139 141 144 150 156 165 178 188 193 199 209 213 169 130 123 109 92 83 85 88 89 86 83 81
229 227 226 225 224 223 220 218 217 216 210 206 212 210 208 209 206 214 228 233 237 235 244 249 220 199 57 74 78 77 74 71 66 62 57 54 55 55 55 54 53 52 53 54 56 60 61 59 57 55 56 58 61 63 68 73 77 79 79 80 83 84 88 92 97 103 114 125 131 134 136 139 140 142 145 149 154 159 167 174 180 184 186 174 147 131 125 115 101 94 94 96 95 91 89 87 85
228 227 226 225 223 221 220 218 216 217 213 207 210 211 210 210 211 220 226 226 231 230 233 240 222 200 193 92 87 86 82 78 71 67 62 57 56 57 56 55 54 52 52 54 55 58 60 59 57 54 54 57 60 62 65 70 76 80 80 79 82 85 87 90 95 100 109 123 135 140 142 144 146 149 151 153 156 158 161 164 164 158 148 138 130 126 119 107 101 101 101 99 96 94 91 89 87
228 227 225 224 222 220 219 218 216 216 215 211 211 214 213 212 213 218 220 220 223 221 223 230 222 206 197 152 103 96 93 87 78 71 66 62 59 58 58 57 55 53 51 52 55 57 58 59 57 54 54 56 59 63 66 69 73 77 78 77 80 87 90 91 95 100 104 113 124 134 140 144 145 145 145 145 146 146 146 145 143 138 134 130 127 121 111 106 106 106 104 101 99 96 93 91 89
227 226 225 224 222 220 219 218 217 215 215 213 213 213 211 210 209 213 215 217 217 212 214 221 221 214 200 179 145 112 108 101 90 79 70 66 63 62 61 59 58 55 52 52 54 56 57 58 58 56 55 56 59 63 67 70 72 75 76 76 79 87 94 95 96 99 103 107 112 118 124 129 131 131 131 132 133 134 134 135 134 132 130 128 123 116 111 111 111 108 106 103 101 98 95 93 92
225 225 225 223 222 221 218 216 217 216 215 214 214 213 212 210 209 210 214 217 216 210 209 217 220 219 209 188 172 141 125 121 106 91 76 70 69 66 64 62 60 58 54 52 52 55 57 58 58 57 56 57 59 63 68 72 73 74 76 77 80 87 95 99 99 100 101 105 109 112 116 121 124 126 128 129 130 131 132 133 132 130 128 125 119 114 114 115 113 110 108 105 103 100 98 96 94
223 224 224 222 220 220 218 215 216 216 215 216 215 215 216 218 216 214 215 219 220 212 209 218 221 220 217 199 181 169 146 139 129 109 88 77 74 73 69 65 63 60 56 53 51 54 57 58 58 57 57 58 59 63 67 73 75 75 76 78 81 89 98 103 105 103 103 104 108 112 115 118 122 125 127 129 130 131 132 132 130 129 126 121 117 117 118 117 114 111 109 108 106 103 100 97 95
223 223 223 222 219 219 218 216 215 215 215 216 216 217 218 220 219 215 215 219 220 214 210 217 222 220 221 210 190 181 166 153 150 134 110 93 85 80 77 71 67 63 60 55 52 52 56 58 59 58 58 59 60 63 67 72 76 78 78 79 81 88 98 106 109 110 109 108 110 114 117 120 122 124 125 127 128 129 130 130 129 127 123 120 119 120 120 118 116 114 112 111 108 104 101 98 95
224 223 222 222 221 219 219 217 216 215 215 216 216 217 217 219 219 216 215 216 217 214 210 214 218 217 220 217 200 190 183 167 161 157 142 119 105 94 86 79 73 67 63 59 54 52 55 59 60 59 58 60 61 62 66 70 74 78 81 82 83 87 94 103 110 113 115 116 116 118 120 122 124 124 125 126 128 129 129 128 126 125 123 122 122 122 121 119 118 116 115 112 108 104 101 98 96
225 224 222 222 221 220 220 218 217 216 215 215 215 216 217 217 219 217 214 214 216 215 212 213 215 213 216 219 210 199 193 180 168 167 162 147 133 116 100 89 81 74 69 64 57 53 55 59 61 60 59 60 61 62 65 68 72 77 81 84 86 88 91 97 105 112 116 119 121 123 123 124 125 125 126 127 128 128 128 127 126 125 124 125 125 124 123 121 120 118 115 111 107 103 100 97 94
226 225 223 222 221 221 220 219 218 216 215 215 215 216 216 216 218 218 215 213 216 217 215 214 215 212 211 216 217 209 200 190 178 170 167 160 152 140 119 101 91 83 75 70 64 57 57 60 62 63 61 60 62 63 65 67 70 75 79 82 85 88 91 94 98 105 111 116 119 123 125 126 127 127 127 127 128 128 128 127 127 126 126 127 127 126 124 122 120 117 113 110 106 102 99 95 91
228 226 225 222 221 221 220 219 218 216 215 216 216 216 216 216 216 217 215 214 215 218 218 217 216 214 210 211 216 213 204 197 188 176 169 161 155 151 138 117 102 94 85 76 70 64 60 62 64 64 63 62 62 64 65 67 68 72 76 80 83 86 89 92 95 99 103 108 112 116 120 123 125 126 127 128 129 130 130 129 128 128 129 129 129 128 125 123 120 116 113 109 106 101 96 92 88
230 228 227 224 223 222 221 219 219 216 214 216 217 216 216 217 216 215 216 215 215 218 220 219 218 217 214 211 214 213 206 202 195 185 175 166 157 154 149 136 115 103 96 86 77 71 66 65 66 66 65 65 65 65 66 67 68 70 73 77 81 84 86 89 92 95 99 103 107 111 114 117 121 123 126 128 129 131 131 130 130 131 131 132 131 129 126 123 120 116 113 109 105 100 96 91 87
231 230 228 226 224 224 223 221 220 218 215 216 216 216 216 215 215 215 215 215 215 217 219 219 218 219 217 214 216 215 209 206 202 193 186 179 167 157 155 149 135 116 106 98 86 79 74 69 69 69 67 66 67 68 68 68 69 70 72 74 78 81 85 88 90 93 96 100 105 108 111 115 118 121 124 127 129 131 132 132 133 134 134 134 132 129 126 123 120 117 113 109 104 100 96 91 87
232 231 229 227 225 226 225 223 222 220 217 216 216 216 216 215 215 215 213 214 215 216 217 218 218 219 218 216 218 218 211 207 207 202 197 192 181 169 164 159 151 137 119 108 98 88 83 77 73 72 70 67 67 69 70 71 71 72 73 74 77 79 82 86 89 92 95 98 103 107 110 113 116 120 124 127 130 132 133 134 135 136 136 134 132 128 125 123 121 118 114 109 105 100 96 91 87
232 231 230 227 225 226 226 225 224 222 220 218 217 216 216 215 216 216 214 213 213 213 216 218 218 217 217 216 218 219 214 208 207 208 206 201 194 185 178 172 163 155 140 123 111 100 92 87 81 76 72 69 68 69 70 72 74 74 75 76 77 79 82 84 87 91 94 98 102 105 108 111 115 119 124 128 131 133 135 136 137 137 136 134 131 128 125 123 121 117 113 109 105 100 95 91 87
232 232 231 228 226 225 225 225 223 223 222 220 218 216 216 214 215 216 215 214 212 211 213 217 218 218 218 218 217 218 215 211 208 209 211 209 202 195 189 185 177 167 159 144 128 116 104 97 92 84 77 72 70 70 70 71 74 76 77 78 79 80 83 84 86 89 92 97 100 103 106 109 113 118 124 129 133 135 137 139 139 138 137 134 130 127 125 123 120 116 112 108 104 99 95 91 87
233 232 230 228 227 225 225 225 223 223 223 221 219 217 215 213 212 213 215 214 213 210 211 213 216 218 219 218 218 218 216 212 209 209 212 212 208 201 194 191 187 177 170 163 149 136 123 111 104 96 87 78 73 73 72 71 73 76 79 81 82 83 84 86 88 89 91 95 100 103 106 109 113 119 125 131 135 138 139 140 140 139 136 133 130 127 126 124 121 117 112 108 104 100 95 91 87
233 232 230 228 226 225 226 226 223 222 222 222 221 218 216 214 212 213 215 215 213 212 212 213 215 218 218 216 217 219 218 213 210 209 211 212 210 204 199 195 191 184 176 173 168 158 146 132 119 110 102 92 82 78 76 74 74 76 78 81 84 86 87 88 90 91 92 95 99 103 107 110 114 120 126 132 136 139 140 140 140 138 136 132 130 128 127 124 121 117 113 109 105 101 97 93 89
234 233 231 228 226 225 225 226 224 222 221 221 221 219 216 213 212 213 214 214 213 212 211 212 214 217 215 214 217 219 218 215 211 210 211 211 210 208 204 200 195 189 182 178 178 175 169 158 143 128 117 108 98 88 83 80 77 76 78 80 83 87 89 90 93 94 95 97 100 103 107 111 116 121 128 134 137 139 140 140 139 138 136 133 131 129 128 126 122 118 114 110 106 102 98 95 91
233 233 232 229 227 225 225 225 225 223 221 220 219 218 217 214 213 213 212 211 211 211 210 210 213 215 212 211 215 218 218 217 212 210 211 210 208 209 208 204 200 195 189 182 182 184 183 177 168 154 138 125 116 105 95 89 84 81 80 80 81 85 90 93 95 97 99 100 102 105 108 112 116 122 128 134 137 139 140 140 139 138 136 134 132 131 131 129 125 121 117 112 108 104 100 97 93
232 233 233 230 228 226 225 224 225 224 222 222 219 218 218 215 214 214 212 208 208 208 209 209 211 213 212 211 213 216 218 218 214 211 211 210 208 209 210 208 205 201 195 188 186 188 190 189 183 173 161 146 134 124 113 102 94 89 86 83 82 82 87 92 96 99 102 103 105 108 110 114 118 123 129 134 137 139 140 141 140 139 137 135 134 134 134 132 129 125 120 115 111 106 101 98 94
230 231 232 230 228 227 225 224 224 224 223 222 220 219 219 216 215 215 213 209 208 206 206 208 210 211 212 213 214 214 215 217 216 214 212 211 209 209 211 209 208 206 200 194 191 191 193 195 191 185 178 168 157 144 133 122 111 102 96 91 87 84 84 89 95 99 103 106 109 111 113 116 120 124 129 134 138 140 141 142 142 141 140 138 137 137 138 137 135 131 126 120 114 107 101 97 93
230 230 231 230 228 228 226 224 222 223 223 221 220 219 219 217 215 215 214 211 209 206 203 204 207 209 210 212 213 214 214 214 215 216 214 212 210 211 211 211 210 209 204 199 196 195 196 197 197 193 188 182 174 165 154 143 132 121 112 104 97 93 88 87 90 96 102 107 111 114 116 119 123 127 130 134 138 141 143 144 144 144 143 143 142 142 143 142 141 138 133 126 118 111 103 98 93
233 231 230 229 228 227 227 225 223 223 223 222 220 219 218 217 215 215 215 213 211 209 205 203 204 206 208 209 211 213 214 213 214 216 216 214 213 213 213 213 212 211 207 204 202 200 198 199 201 199 195 191 185 180 174 166 155 143 132 121 113 106 99 93 90 91 96 102 109 114 119 122 125 129 133 136 138 141 144 146 147 148 147 147 148 147 148 147 147 146 142 135 129 122 116 108 99
237 234 231 229 227 226 227 226 225 223 222 222 221 220 219 217 216 216 215 213 212 212 210 208 206 206 207 208 209 211 213 214 214 215 216 215 214 214 214 215 214 212 209 207 207 206 202 200 202 203 201 196 193 191 188 183 176 167 154 142 131 122 113 106 99 94 93 96 102 109 117 123 127 132 136 140 142 144 146 148 149 151 152 153 154 154 154 154 153 153 151 147 142 138 134 128 119
237 236 234 231 229 226 226 226 226 224 222 222 222 221 220 219 218 218 216 213 213 212 212 213 212 211 210 209 208 208 212 215 216 215 215 216 216 215 214 214 214 213 212 210 210 211 207 202 202 204 204 201 198 197 197 195 190 184 175 164 152 141 131 121 113 105 99 96 98 102 110 119 128 134 138 142 147 149 151 153 154 155 157 158 160 161 162 163 162 162 162 160 157 153 152 151 148
235 235 234 233 231 228 225 225 225 225 223 222 222 221 220 220 219 219 218 215 215 213 213 215 216 215 215 212 209 208 210 215 217 216 214 215 217 217 216 215 214 212 212 211 211 212 211 207 204 203 204 203 202 201 202 203 200 195 189 181 171 160 150 140 131 123 115 108 103 102 105 111 120 131 140 146 150 153 157 160 161 163 164 165 167 168 170 170 169 170 171 171 168 166 166 167 169
235 234 233 233 233 230 227 224 224 225 224 223 223 221 220 220 220 220 218 217 216 214 214 216 216 216 216 215 212 209 210 213 217 217 216 215 217 219 219 218 216 214 213 213 213 213 212 211 208 206 204 205 206 206 205 207 206 202 197 193 186 176 166 158 150 142 135 128 122 116 112 111 114 122 134 145 153 157 161 164 166 168 170 172 173 175 176 175 175 177 178 179 177 176 176 177 178